[[{"header":{"parameterUnit":"m.s-1","parameterCategory":1,"la1":30.2991,"la2":30.254,"lo1":-89.0895,"lo2":-89.0444,"dy":0.0017,"dx":0.0017,"nx":28,"ny":28,"refTime":"2025-04-22T03:00:00:Z","depth":0,"parameterNumber":2,"parameterNumberName":"U-component_of_WINDS"},"data":[0,0,0,0,0,0,0,0,0,0,0,0,0,0,0,0,0,0,0,0,0,0,0,0,0,0,0,0,0,0,0,0,0,0,0,0,0,0,0,0,0,0,0,0,0,0,0,0,0,0,0,0,0,0,0,0,0,0,-0.957,-0.957,0,-0.9637,-0.9637,-0.9638,-0.9661,-0.9661,-0.9661,-0.9661,-0.9731,-0.9733,-0.9735,0,0,0,0,0,0,0,0,0,0,0,0,0,-0.9464,-0.9466,-0.957,-0.957,-0.9571,-0.9636,-0.9637,-0.9638,-0.9661,-0.9661,-0.9661,-0.966,-0.9731,-0.9733,-0.9736,0,0,0,0,0,0,0,0,0,0,0,0,0,-0.9519,-0.9467,-0.9569,-0.9591,-0.9593,-0.9636,-0.9637,-0.9639,-0.9661,-0.9661,-0.9661,-0.966,-0.973,-0.9733,-0.9736,-0.9764,0,0,-0.9746,-0.9747,0,0,0,0,0,0,0,0,-0.9516,-0.9523,-0.9587,-0.9589,-0.9592,-0.964,-0.9626,-0.9681,-0.9662,-0.9636,-0.9661,-0.966,-0.9701,-0.9707,-0.972,-0.9767,-0.977,-0.9746,-0.9748,-0.9749,-0.975,0,0,0,0,0,0,0,-0.9512,-0.952,-0.9596,-0.9588,-0.9591,-0.9598,-0.9605,-0.9637,-0.967,-0.9638,-0.964,-0.9647,-0.9703,-0.9717,-0.9722,-0.9771,-0.9746,-0.9749,-0.9751,-0.9752,-0.9845,-0.9845,0,0,0,0,0,0,-0.9504,-0.9516,-0.9594,-0.9598,-0.9552,-0.96,-0.9608,-0.9625,-0.967,-0.9676,-0.9647,-0.9648,-0.9712,-0.9719,-0.9725,-0.9761,-0.9749,-0.9752,-0.9754,-0.9844,-0.9845,-0.9846,0,0,0,0,0,0,-0.9502,-0.9511,-0.9591,-0.9558,-0.9569,-0.9602,-0.9621,-0.9627,-0.9641,-0.9677,-0.9683,-0.9656,-0.9712,-0.972,-0.9754,-0.9764,-0.9754,-0.9757,-0.9844,-0.9845,-0.9845,-0.9832,0,0,0,0,0,0,-0.9499,-0.951,-0.952,-0.9558,-0.957,-0.9618,-0.9622,-0.9628,-0.9646,-0.9648,-0.9687,-0.9693,-0.9712,-0.9749,-0.9757,-0.9768,-0.9759,-0.9843,-0.9844,-0.9845,-0.9832,-0.9833,-0.9833,0,0,0,0,0,-0.9495,-0.9514,-0.952,-0.953,-0.9584,-0.9619,-0.9626,-0.9648,-0.9647,-0.9658,-0.9681,-0.9691,-0.9761,-0.9752,-0.9762,-0.9773,-0.9843,-0.9844,-0.9845,-0.9832,-0.9833,-0.9833,0,0,0,0,0,0,-0.9477,-0.9519,-0.9527,-0.9559,-0.9585,-0.9623,-0.9637,-0.9648,-0.9675,-0.9676,-0.9702,-0.9711,-0.9742,-0.9761,-0.9751,-0.9803,-0.9803,-0.9806,-0.9789,-0.979,-0.9791,-0.9786,-0.9762,0,0,0,0,0,-0.9477,-0.9501,-0.9537,-0.9562,-0.9574,-0.9603,-0.962,-0.9634,-0.9663,-0.9674,-0.97,-0.9728,-0.9756,-0.9774,-0.9802,-0.9835,-0.9844,-0.9848,-0.9848,-0.9849,-0.9851,-0.9871,-0.9873,-0.985,-0.985,-0.985,0,0,-0.9476,-0.9502,-0.9516,-0.9559,-0.9581,-0.9606,-0.9613,-0.9639,-0.9659,-0.9679,-0.9712,-0.9732,-0.9765,-0.9798,-0.9814,-0.9815,-0.986,-0.985,-0.985,-0.9853,-0.9872,-0.9874,-0.9876,-0.9851,-0.985,-0.985,0,0,-0.9489,-0.9511,-0.9534,-0.9556,-0.9589,-0.9608,-0.9614,-0.965,-0.9664,-0.9698,-0.9713,-0.9737,-0.9785,-0.9809,-0.9827,-0.9849,-0.986,-0.9857,-0.986,-0.9879,-0.9881,-0.9882,-0.9891,-0.9894,-0.986,-0.986,-0.986,0,-0.9485,-0.9523,-0.9545,-0.9571,-0.9589,-0.9608,-0.9632,-0.9653,-0.9694,-0.9706,-0.9706,-0.9768,-0.9791,-0.9831,-0.9836,-0.985,-0.9858,-0.9853,-0.9879,-0.9881,-0.9883,-0.9891,-0.9894,-0.9859,-0.9859,-0.9859,-0.9859,0,-0.9516,-0.9543,-0.9557,-0.9596,-0.9616,-0.9641,-0.9668,-0.9686,-0.9699,-0.9719,-0.9753,-0.9782,-0.9817,-0.9827,-0.984,-0.9869,-0.9868,-0.9873,-0.9873,-0.9884,-0.9892,-0.9896,-0.9859,-0.9859,-0.9859,-0.9859,0,0,-0.9519,-0.957,-0.9575,-0.9593,-0.9631,-0.9652,-0.9678,-0.9712,-0.9727,-0.9755,-0.9778,-0.9819,-0.9824,-0.9844,-0.986,-0.9876,-0.9893,-0.988,-0.9881,-0.9881,-0.9927,-0.9924,-0.9927,-0.99,-0.9901,-0.9902,-0.9925,0,-0.9537,-0.9584,-0.9605,-0.9642,-0.9668,-0.9686,-0.9709,-0.9735,-0.9755,-0.978,-0.9801,-0.983,-0.9834,-0.9846,-0.9863,-0.9887,-0.9903,-0.9886,-0.9923,-0.9924,-0.9914,-0.9931,-0.9927,-0.9948,-0.9928,-0.9929,-0.9929,0,-0.9564,-0.9591,-0.9631,-0.9667,-0.9678,-0.9699,-0.9731,-0.9754,-0.9785,-0.9798,-0.9821,-0.9837,-0.9866,-0.9864,-0.9905,-0.9894,-0.991,-0.9924,-0.9926,-0.993,-0.9927,-0.9937,-0.9955,-0.9958,-0.9934,-0.9934,-0.9933,0,-0.9563,-0.961,-0.964,-0.9655,-0.9697,-0.9711,-0.9729,-0.976,-0.9778,-0.9807,-0.982,-0.9852,-0.9869,-0.9894,-0.9918,-0.9915,-0.9958,-0.9958,-0.997,-0.997,-0.9979,-0.9978,-1.0,-0.9989,-0.9989,-0.9989,-0.9989,0,-0.9581,-0.9605,-0.964,-0.9658,-0.9686,-0.971,-0.9737,-0.9757,-0.9784,-0.9808,-0.9826,-0.9848,-0.9878,-0.9904,-0.9923,-0.9955,-0.9963,-0.9975,-0.998,-0.9974,-0.9972,-0.9985,-0.9984,-0.9989,-0.9989,-0.9989,-0.9989,0,-0.9585,-0.9609,-0.9643,-0.968,-0.969,-0.9709,-0.9741,-0.976,-0.978,-0.981,-0.9819,-0.9851,-0.9882,-0.9909,-0.995,-0.9963,-0.9997,-1.0002,-0.9986,-0.9989,-1.0,-0.9999,-1.0031,-1.0037,-1.0021,-1.0021,-1.0022,0,-0.9595,-0.9613,-0.9652,-0.9669,-0.9687,-0.9713,-0.9733,-0.9758,-0.9777,-0.9814,-0.9829,-0.9862,-0.9889,-0.9939,-0.9967,-0.9999,-1.0006,-1.0015,-1.0011,-1.0004,-1.0007,-1.0006,-1.0008,-1.0016,-1.0016,-1.0016,-1.0016,0,-0.961,-0.9621,-0.9648,-0.9678,-0.9701,-0.9726,-0.9753,-0.9765,-0.9796,-0.9817,-0.9849,-0.987,-0.9913,-0.9945,-0.9981,-1.0001,-1.0014,-1.0017,-1.0022,-1.0016,-1.0006,-1.0012,-0.9987,-1.0016,-1.0016,-1.0016,-1.0016,-1.0016,-0.9618,-0.9636,-0.9666,-0.9695,-0.9717,-0.9741,-0.9761,-0.9784,-0.9811,-0.9846,-0.986,-0.9893,-0.9925,-0.9973,-0.9993,-1.0021,-1.0022,-1.0029,-1.0031,-1.0032,-1.0031,-1.0001,-1.0027,-1.0027,-1.0027,-1.0027,-1.0027,0,-0.9635,-0.9655,-0.9681,-0.9717,-0.974,-0.9749,-0.9779,-0.9798,-0.9827,-0.9855,-0.9881,-0.9919,-0.9951,-0.9981,-1.0014,-1.003,-1.0037,-1.0039,-1.0038,-1.0043,-1.0028,-1.002,-1.0033,-1.0033,-1.0033,-1.0032,-1.0032,-1.0032,-0.9646,-0.9677,-0.9692,-0.9734,-0.9754,-0.9786,-0.9802,-0.9825,-0.9848,-0.9888,-0.9914,-0.9934,-0.9963,-0.9999,-1.0029,-1.0037,-1.0049,-1.0049,-1.0059,-1.0044,-1.0043,-1.0043,-1.0036,-1.0051,-1.0051,-1.0071,-1.0071,-1.0072]},{"header":{"parameterUnit":"m.s-1","parameterCategory":1,"la1":30.2991,"la2":30.254,"lo1":-89.0895,"lo2":-89.0444,"dy":0.0017,"dx":0.0017,"nx":28,"ny":28,"refTime":"2025-04-22T03:00:00:Z","depth":0,"parameterNumber":3,"parameterNumberName":"V-component_of_WINDS"},"data":[0,0,0,0,0,0,0,0,0,0,0,0,0,0,0,0,0,0,0,0,0,0,0,0,0,0,0,0,0,0,0,0,0,0,0,0,0,0,0,0,0,0,0,0,0,0,0,0,0,0,0,0,0,0,0,0,0,0,3.0511,3.0512,0,3.059,3.0591,3.0592,3.0588,3.0587,3.0586,3.0585,3.0662,3.0665,3.0668,0,0,0,0,0,0,0,0,0,0,0,0,0,3.0354,3.0357,3.0511,3.0512,3.0513,3.059,3.0591,3.0592,3.0588,3.0587,3.0585,3.0584,3.0661,3.0665,3.0669,0,0,0,0,0,0,0,0,0,0,0,0,0,3.0426,3.0358,3.051,3.052,3.0522,3.0589,3.0591,3.0592,3.0588,3.0587,3.0585,3.0583,3.066,3.0665,3.0669,3.0731,0,0,3.0683,3.0685,0,0,0,0,0,0,0,0,3.0422,3.0432,3.0518,3.052,3.0522,3.0577,3.0564,3.0639,3.0589,3.0563,3.0585,3.0583,3.0635,3.0642,3.066,3.0735,3.0738,3.0684,3.0687,3.0689,3.069,0,0,0,0,0,0,0,3.0417,3.0429,3.0542,3.0519,3.0521,3.052,3.0528,3.0578,3.0607,3.0565,3.0565,3.0575,3.0636,3.0656,3.0662,3.074,3.0684,3.0688,3.0691,3.0693,3.0871,3.0872,0,0,0,0,0,0,3.0411,3.0425,3.0539,3.0544,3.0467,3.0524,3.0533,3.0561,3.0607,3.0612,3.0576,3.0574,3.0649,3.0657,3.0665,3.0741,3.0689,3.0693,3.0696,3.0869,3.0871,3.0873,0,0,0,0,0,0,3.0407,3.0421,3.0536,3.0485,3.0499,3.0528,3.056,3.0564,3.0583,3.0615,3.062,3.0591,3.0648,3.0658,3.0715,3.0744,3.0695,3.0699,3.0866,3.0869,3.0872,3.0895,0,0,0,0,0,0,3.0403,3.042,3.0444,3.0485,3.0502,3.0586,3.0561,3.0566,3.0592,3.059,3.0631,3.0636,3.0647,3.0708,3.072,3.0749,3.0703,3.0864,3.0868,3.0871,3.0891,3.0898,3.0903,0,0,0,0,0,3.0397,3.0446,3.0445,3.0459,3.0533,3.0588,3.0597,3.0611,3.0594,3.0619,3.0639,3.0634,3.0739,3.0714,3.0727,3.0759,3.0862,3.0867,3.0871,3.0889,3.0897,3.0903,0,0,0,0,0,0,3.0406,3.0452,3.0451,3.0515,3.0548,3.0587,3.0618,3.0618,3.0655,3.0652,3.0666,3.0675,3.0733,3.0751,3.0723,3.0822,3.0798,3.0806,3.0807,3.0815,3.0821,3.0815,3.0707,0,0,0,0,0,3.0416,3.0458,3.0495,3.0548,3.0564,3.0589,3.0613,3.0621,3.0654,3.0668,3.0692,3.0725,3.0765,3.0791,3.083,3.0894,3.0903,3.0922,3.0928,3.0933,3.0939,3.0975,3.0984,3.0887,3.0887,3.0887,0,0,3.0436,3.0466,3.0491,3.055,3.0577,3.0619,3.06,3.0645,3.0677,3.0674,3.073,3.075,3.0787,3.0848,3.0876,3.0865,3.0968,3.0938,3.0942,3.0945,3.098,3.0989,3.0998,3.089,3.089,3.0889,0,0,3.0494,3.0521,3.0569,3.0596,3.0636,3.0653,3.0664,3.0704,3.0717,3.0774,3.0773,3.081,3.0879,3.0906,3.0928,3.0998,3.0995,3.101,3.1042,3.1077,3.1084,3.1091,3.1116,3.1125,3.1016,3.1016,3.1016,0,3.0514,3.0578,3.0593,3.0639,3.0665,3.0667,3.0715,3.074,3.079,3.0808,3.0795,3.0883,3.0908,3.0976,3.0993,3.1011,3.1024,3.1006,3.1082,3.1089,3.1096,3.112,3.113,3.1018,3.1018,3.1018,3.1017,0,3.0601,3.0645,3.0679,3.0729,3.0759,3.0806,3.0827,3.0855,3.0861,3.0878,3.0936,3.0966,3.1011,3.1028,3.1033,3.1097,3.1089,3.1079,3.1056,3.1106,3.1129,3.1139,3.102,3.102,3.1019,3.1019,0,0,3.0666,3.0725,3.0737,3.0761,3.0806,3.084,3.0887,3.0933,3.0957,3.0992,3.1032,3.1091,3.1083,3.1108,3.1116,3.1147,3.1201,3.1133,3.1134,3.1145,3.1274,3.1281,3.1292,3.12,3.1201,3.1203,3.1271,0,3.0729,3.0813,3.0829,3.0902,3.0944,3.0946,3.0987,3.1019,3.1037,3.1074,3.1093,3.1135,3.1121,3.1136,3.1167,3.1188,3.1227,3.1183,3.1236,3.1238,3.1227,3.1304,3.1312,3.1375,3.128,3.1282,3.1283,0,3.0814,3.0853,3.0931,3.0972,3.099,3.1026,3.107,3.1106,3.1142,3.1153,3.1183,3.1187,3.1236,3.1211,3.1278,3.1248,3.127,3.1284,3.1287,3.1292,3.1263,3.1312,3.1395,3.1405,3.1297,3.1296,3.1295,0,3.0854,3.0926,3.0982,3.1002,3.1051,3.1077,3.1098,3.1133,3.116,3.1198,3.1216,3.1258,3.1281,3.1314,3.133,3.131,3.1396,3.1372,3.1406,3.1406,3.1424,3.1422,3.1512,3.1438,3.1438,3.1438,3.1437,0,3.0923,3.0971,3.1001,3.1036,3.109,3.1106,3.1159,3.1179,3.1211,3.1249,3.1253,3.1289,3.1308,3.1346,3.1359,3.1413,3.1423,3.1433,3.1436,3.1433,3.1432,3.1448,3.1444,3.144,3.144,3.1439,3.1439,0,3.0977,3.0999,3.1061,3.1103,3.1115,3.1152,3.1188,3.1222,3.124,3.1288,3.13,3.1328,3.1374,3.1394,3.1449,3.1458,3.1519,3.1519,3.1508,3.1509,3.1541,3.1538,3.1645,3.166,3.1576,3.1576,3.1577,0,3.102,3.1057,3.1103,3.113,3.1153,3.1195,3.1223,3.1241,3.127,3.1315,3.1343,3.1389,3.1427,3.15,3.1524,3.1567,3.1568,3.1602,3.1574,3.157,3.1569,3.1566,3.157,3.1607,3.1608,3.1609,3.1609,0,3.1093,3.1103,3.1143,3.1189,3.1222,3.1258,3.1293,3.1315,3.1338,3.137,3.1418,3.1447,3.1505,3.155,3.1595,3.1616,3.1617,3.1618,3.1628,3.1625,3.1618,3.1623,3.1522,3.1615,3.1615,3.1614,3.1614,3.1614,3.1143,3.1176,3.1215,3.126,3.1289,3.1322,3.1356,3.1379,3.1419,3.1469,3.1477,3.1527,3.1563,3.1624,3.1647,3.1686,3.1678,3.1692,3.1696,3.1699,3.1702,3.1612,3.1694,3.1694,3.1694,3.1694,3.1694,0,3.1217,3.1242,3.1284,3.1334,3.137,3.1369,3.1408,3.1437,3.1482,3.1517,3.1554,3.1609,3.1654,3.1683,3.1728,3.1754,3.1755,3.1765,3.1763,3.1768,3.1707,3.1694,3.1763,3.1763,3.1763,3.1763,3.1763,3.1763,3.126,3.1317,3.1331,3.1402,3.1427,3.1478,3.15,3.1531,3.1558,3.162,3.1657,3.1676,3.1709,3.1756,3.1797,3.1804,3.1821,3.1831,3.1838,3.178,3.1773,3.1766,3.1753,3.1835,3.1835,3.1897,3.1897,3.1898]}]]